Volver al catálogo

DELTA 1 DEB

ActivoSSO
NORAD 10646·DEBRIS·🇺🇸 United States

Lanzado Jul 29, 1976 desde Vandenberg Space Force Base

Loading…

Próximos Pases (próximas 24 horas)

TLE

ActualizadoSource: Space-Track

Época: Sep 14, 2026, 08:01 UTC

1 10646U 76077G   26257.33458455 -.00000041  00000-0  44654-4 0  9996
2 10646 102.6648 208.0914 0143350 212.1424 304.7244 12.14468757223154

Sigue DELTA 1 DEB en tiempo real con AllMySat

Download on the App Store